Weather History for Nasa Shuttle, FL

Change the Weather History Date:

Wednesday, August 28, 2013

  Actual Average Record
Temperature  
Mean Temperature 77 °F -  
Max Temperature 87 °F 86 °F 93 °F (1998)
Min Temperature 68 °F 71 °F 68 °F (2013)
Cooling Degree Days 12    
Growing Degree Days 27 (Base 50)    
Moisture  
Dew Point 69 °F    
Average Humidity 76    
Maximum Humidity 100    
Minimum Humidity 56    
Precipitation  
Precipitation 0.00 in - - ()
Sea Level Pressure  
Sea Level Pressure 30.04 in    
Wind  
Wind Speed 3 mph (East)    
Max Wind Speed 8 mph    
Max Gust Speed -    
Visibility 8 miles    
Events Rain    
Averages and records for this station are not official NWS values.
T = Trace of Precipitation, MM = Missing Value Source: NWS Daily Summary

Daily Weather History Graph

Daily Weather History Graph

Search for Another Location

Airport:

Trip Planner

Search our weather history database for the weather conditions in past years. The results will help you decide how hot, cold, wet, or windy it might be!

Date:

Astronomy

Aug. 28, 2013 Rise Set
Actual Time 6:59 AM EDT 7:48 PM EDT
Civil Twilight 6:34 AM EDT 8:12 PM EDT
Nautical Twilight 6:06 AM EDT 8:40 PM EDT
Astronomical Twilight 5:37 AM EDT 9:09 PM EDT
Moon 12:18 AM EDT (8/28) 2:11 PM EDT (8/28)
Length of Visible Light 13h 37m
Length of Day
12h 49m
Waning Gibbous, 47% of the Moon is Illuminated
Aug 28
Waning Gibbous
Sep 5
New
Sep 12
First Quarter
Sep 19
Full
Sep 26
Last Quarter

Hourly Weather History & Observations

Time (EDT) Temp. Heat Index Dew Point Humidity Pressure Visibility Wind Dir Wind Speed Gust Speed Precip Events Conditions
12:58 AM 70.7 °F - 70.5 °F 99% 30.04 in 10.0 mi WNW 2.3 mph - N/A   Clear
1:58 AM 69.4 °F - 69.3 °F 99% 30.03 in 10.0 mi Calm Calm - N/A   Clear
2:58 AM 69.8 °F - 69.4 °F 99% 30.03 in 10.0 mi Calm Calm - N/A   Clear
3:58 AM 69.8 °F - 69.6 °F 99% 30.02 in 10.0 mi North 1.2 mph - N/A   Partly Cloudy
4:58 AM 69.6 °F - 69.3 °F 99% 30.01 in 10.0 mi Calm Calm - N/A   Clear
5:58 AM 69.1 °F - 68.9 °F 99% 30.02 in 10.0 mi Calm Calm - N/A   Clear
6:58 AM 68.7 °F - 68.4 °F 99% 30.02 in 10.0 mi Calm Calm - N/A   Clear
7:58 AM 72.1 °F - 72.1 °F 100% 30.03 in 10.0 mi Calm Calm - N/A   Clear
8:58 AM 80.4 °F 86.3 °F 76.1 °F 87% 30.05 in 7.0 mi ENE 3.5 mph - N/A   Clear
9:33 AM 84.2 °F 88.4 °F 69.8 °F 62% 30.05 in 2.5 mi NE 4.6 mph - N/A   Haze
9:42 AM 84.2 °F 88.4 °F 69.8 °F 62% 30.06 in 2.5 mi ENE 2.3 mph - N/A   Haze
9:44 AM 84.2 °F 88.4 °F 69.8 °F 62% 30.06 in 3.0 mi Variable 2.3 mph - N/A   Haze
9:47 AM 84.2 °F 88.4 °F 69.8 °F 62% 30.06 in 2.5 mi East 2.3 mph - N/A   Haze
9:51 AM 84.2 °F 88.4 °F 69.8 °F 62% 30.06 in 3.0 mi ENE 4.6 mph - N/A   Haze
9:53 AM 84.2 °F 87.3 °F 68.0 °F 58% 30.06 in 2.5 mi NE 3.5 mph - N/A   Haze
9:55 AM 84.2 °F 87.3 °F 68.0 °F 58% 30.06 in 3.0 mi NE 4.6 mph - N/A   Haze
10:02 AM 84.2 °F 87.3 °F 68.0 °F 58% 30.06 in 2.5 mi ENE 3.5 mph - N/A   Haze
10:03 AM 84.2 °F 87.3 °F 68.0 °F 58% 30.06 in 3.0 mi East 3.5 mph - N/A   Haze
10:04 AM 84.2 °F 87.3 °F 68.0 °F 58% 30.06 in 2.5 mi East 3.5 mph - N/A   Haze
10:20 AM 84.2 °F 87.3 °F 68.0 °F 58% 30.07 in 3.0 mi NE 5.8 mph - N/A   Haze
10:55 AM 84.2 °F 87.3 °F 68.0 °F 58% 30.07 in 10.0 mi NE 5.8 mph - N/A   Clear
11:58 AM 85.5 °F 89.1 °F 68.7 °F 57% 30.09 in 10.0 mi East 5.8 mph - N/A   Clear
12:58 PM 86.7 °F 91.0 °F 69.1 °F 56% 30.07 in 10.0 mi Variable 5.8 mph - N/A   Partly Cloudy
1:58 PM 86.7 °F 91.0 °F 69.1 °F 56% 30.06 in 10.0 mi ENE 5.8 mph - N/A   Clear
2:58 PM 86.5 °F 91.0 °F 69.4 °F 57% 30.05 in 10.0 mi ENE 6.9 mph - N/A   Clear
3:58 PM 86.9 °F 91.3 °F 69.3 °F 56% 30.04 in 10.0 mi ESE 8.1 mph - N/A   Clear
4:58 PM 86.0 °F 89.7 °F 68.7 °F 56% 30.03 in 10.0 mi East 5.8 mph - N/A   Clear
5:58 PM 84.7 °F 88.5 °F 69.1 °F 59% 30.01 in 10.0 mi ENE 5.8 mph - N/A   Clear
6:58 PM 82.9 °F 86.3 °F 68.9 °F 62% 30.01 in 10.0 mi East 4.6 mph - N/A   Clear
7:58 PM 78.6 °F - 68.4 °F 71% 30.03 in 10.0 mi ESE 2.3 mph - N/A   Clear
8:32 PM 75.2 °F - 69.8 °F 83% 30.02 in 10.0 mi SE 3.5 mph - N/A Rain Light Rain
8:46 PM 75.2 °F - 69.8 °F 83% 30.02 in 10.0 mi SE 3.5 mph - N/A   Clear
8:58 PM 74.8 °F - 69.3 °F 83% 30.03 in 10.0 mi ESE 2.3 mph - 0.00 in   Clear
9:05 PM 75.2 °F - 69.8 °F 83% 30.03 in 10.0 mi ESE 2.3 mph - N/A Rain Light Rain
9:11 PM 73.4 °F - 69.8 °F 88% 30.03 in 10.0 mi ESE 2.3 mph - N/A   Clear
9:25 PM 73.4 °F - 69.8 °F 88% 30.03 in 10.0 mi ESE 3.5 mph - N/A Rain Light Rain
9:32 PM 73.4 °F - 69.8 °F 88% 30.03 in 10.0 mi SE 3.5 mph - N/A   Clear
9:58 PM 74.3 °F - 69.6 °F 85% 30.04 in 10.0 mi ESE 2.3 mph - 0.00 in   Clear
10:35 PM 73.4 °F - 68.0 °F 83% 30.05 in 10.0 mi Calm Calm - N/A Rain Light Rain
10:44 PM 71.6 °F - 69.8 °F 94% 30.05 in 10.0 mi SSE 3.5 mph - N/A   Clear
10:58 PM 72.3 °F - 69.6 °F 91% 30.05 in 10.0 mi SSE 3.5 mph - 0.00 in   Clear
11:21 PM 71.6 °F - 69.8 °F 94% 30.05 in 10.0 mi Calm Calm - N/A Rain Light Rain
11:27 PM 71.6 °F - 69.8 °F 94% 30.05 in 10.0 mi Calm Calm - N/A   Clear
11:58 PM 70.7 °F - 70.2 °F 98% 30.06 in 10.0 mi Calm Calm - 0.00 in   Clear